Location: Newark
(47.3150°N, 5.1150°E)
Time: 07:57:20
(UTC+00:00)

AO-7 - Pass Details

Date: 15 December 2019
Orbit: 1440 x 1458 km, 101.8° (Epoch: 27 January)

Event Time Altitude Azimuth Distance (km) Brightness Sun altitude
Rises 04:29:23 0° 16° (NNE) 4,562 ? -27.7°
Reaches altitude 10° 04:32:13 10° 13° (NNE) 3,583 ? -27.2°
Maximum altitude 04:40:18 57° 298° (WNW) 1,679 ? -25.8°
Enters shadow 04:44:21 32° 236° (SW) 2,313 ? -25.2°
